User: anonymous   Login
Location: Unspecified
(0.0000°N, 0.0000°E)
Time: 17:23:45
(UTC+00:00)
Language:

QSAT-EOS - Orbit

View from above orbital plane
View from above orbital plane
View from above satellite
View from above satellite

Ground track
Ground track

The orbit data is extracted from the following two-line orbital elements,

1 40301U 14070D   21337.14673067  .00006373  00000-0  21848-3 0  9995
2 40301  97.2373  44.4672 0024789  92.9501 322.6362 15.30225801393448
Epoch (UTC): 03 December 2021 03:31:17
Eccentricity: 0.0024789
inclination: 97.2373°
perigee height: 458 km
apogee height: 492 km
right ascension of ascending node: 44.4672°
argument of perigee: 92.9501°
revolutions per day: 15.30225801
mean anomaly at epoch: 322.6362°
orbit number at epoch: 39344

The dashed part of the orbit path shows where the satellite is in the earth's shadow,  

DLR